Airfield :
LOGIN :

Register | Disclaimer

   EN    FR    IT 

 










Legend :    VFR   Marginal VFR   IFR   Intensive IFR   Very Intensive IFR
Visi :
Ceiling :
>= 8 km
>= 3000ft
5 to 8 km
1000 to 3000 ft
1500m to 5 km
500 to 1000 ft
800 to 1500m
200 to 500 ft
< 800m
< 200 ft
Symbols :   Thunderstorms  Fog  Heavy snow  Heavy precipitations  Wind > 20 kt
SIGMETs :     Misc.  Thunderstorms  Icing  Turbulence  Mountain Waves  Volcanic Ashes







- Airport Elevation : 285 ft
- IATA code : OZP


LEMO - Sevilla Moron

CURRENT METAR :
  • 272300Z 20006KT 160V240 CAVOK 14/13 Q1017 NOSIG

EXPIRED METARs :
  • 272200Z 20007KT 170V230 CAVOK 15/13 Q1017 NOSIG
  • 272100Z 20006KT CAVOK 16/13 Q1016 NOSIG

Expired Forecast.
No reported NOTAMs for that airfield.
1 SIGMET reported for the Madrid FIR (LECM) :
 
Embedded thunderstorms
LECM SIGMET 10 VALID 272200/280100 LEVA
LECM MADRID FIR/UIR EMBD TS FCST WI N4246 W00047 - N4131 W00616 - N3801 W00554 - N4051 W00041 - N4234 W00007 - N4246 W00047 TOP FL380 STNR NC=



MET'MAP, your aeronautical weather chart ! - Copyright ORBIFLY December 2007 - Disclaimer

ORBIFLY MET'MAP TEAM :

Programming & Development : Alexandra Zaïnal
Concept & Development : Baudouin d'Aumeries
Co-Development & Prog : Marc-Olivier Méhu
Technical & hardware support : Manuel Goepfert

Contact : metmap@orbifly.com




SOURCES & CREDITS :

   NOAA